Weather History for Nashua, NH

Change the Weather History Date:

Thursday, September 12, 2013

  Actual Average Record
Temperature  
Mean Temperature 75 °F -  
Max Temperature 84 °F 74 °F 93 °F (2005)
Min Temperature 66 °F 48 °F 33 °F (1977)
Cooling Degree Days 10    
Growing Degree Days 25 (Base 50)    
Moisture  
Dew Point 69 °F    
Average Humidity 90    
Maximum Humidity 100    
Minimum Humidity 70    
Precipitation  
Precipitation 0.97 in - - ()
Sea Level Pressure  
Sea Level Pressure 30.08 in    
Wind  
Wind Speed 2 mph (NW)    
Max Wind Speed 14 mph    
Max Gust Speed -    
Visibility 6 miles    
Events Rain , Thunderstorm    
Averages and records for this station are not official NWS values.
T = Trace of Precipitation, MM = Missing Value Source: NWS Daily Summary

Daily Weather History Graph

Daily Weather History Graph

Search for Another Location

Airport:

Trip Planner

Search our weather history database for the weather conditions in past years. The results will help you decide how hot, cold, wet, or windy it might be!

Date:

Astronomy

Sep. 12, 2013 Rise Set
Actual Time 6:22 AM EDT 7:00 PM EDT
Civil Twilight 5:54 AM EDT 7:29 PM EDT
Nautical Twilight 5:20 AM EDT 8:02 PM EDT
Astronomical Twilight 4:45 AM EDT 8:37 PM EDT
Moon 1:56 PM EDT (9/12) 11:44 PM EDT (9/12)
Length of Visible Light 13h 35m
Length of Day
12h 38m
Waxing Crescent, 50% of the Moon is Illuminated
Sep 12
Waxing Crescent
Sep 12
First Quarter
Sep 19
Full
Sep 26
Last Quarter
Oct 4
New

Hourly Weather History & Observations

Time (EDT) Temp. Heat Index Dew Point Humidity Pressure Visibility Wind Dir Wind Speed Gust Speed Precip Events Conditions
12:51 AM 72.0 °F - 70.0 °F 93% 30.66 in 10.0 mi Calm Calm - N/A   Clear
1:51 AM 70.9 °F - 70.0 °F 97% 30.63 in 10.0 mi Calm Calm - N/A   Clear
2:51 AM 70.9 °F - 68.9 °F 93% 30.64 in 10.0 mi Calm Calm - N/A   Clear
3:51 AM 70.0 °F - 68.9 °F 96% 30.65 in 10.0 mi Calm Calm - N/A   Clear
4:51 AM 68.9 °F - 68.9 °F 100% 30.65 in 8.0 mi Calm Calm - N/A   Clear
5:51 AM 68.9 °F - 68.9 °F 100% 30.63 in 10.0 mi Calm Calm - N/A   Scattered Clouds
6:51 AM 68.9 °F - 68.0 °F 97% 30.63 in 9.0 mi Calm Calm - N/A   Partly Cloudy
7:51 AM 72.0 °F - 68.9 °F 90% 30.62 in 10.0 mi Calm Calm - N/A   Scattered Clouds
8:51 AM 74.8 °F - 68.9 °F 82% 30.60 in 10.0 mi Calm Calm - N/A   Clear
9:51 AM 79.0 °F - 70.0 °F 74% 30.58 in 10.0 mi Calm Calm - N/A   Clear
10:41 AM 82.4 °F 87.2 °F 71.6 °F 70% 29.86 in 10.0 mi Variable 3.5 mph - 0.00 in Thunderstorm Clear
10:51 AM 81.9 °F 86.6 °F 72.0 °F 72% 30.56 in 10.0 mi Variable 3.5 mph - 0.00 in   Partly Cloudy
11:14 AM 84.2 °F 90.9 °F 73.4 °F 70% 29.84 in 10.0 mi Calm Calm - N/A Thunderstorm Mostly Cloudy
11:51 AM 79.9 °F - 72.9 °F 79% 30.54 in 5.0 mi NW 13.8 mph - 0.03 in Rain , Thunderstorm Light Thunderstorms and Rain
12:12 PM 77.0 °F - 75.2 °F 94% 29.81 in 7.0 mi NNW 5.8 mph - 0.00 in Thunderstorm Thunderstorm
12:51 PM 81.0 °F 86.7 °F 74.8 °F 82% 30.52 in 9.0 mi East 5.8 mph - 0.00 in   Scattered Clouds
1:31 PM 80.6 °F 86.2 °F 75.2 °F 84% 29.79 in 10.0 mi ESE 3.5 mph - N/A Thunderstorm Mostly Cloudy
1:51 PM 79.9 °F - 75.9 °F 88% 30.48 in 4.0 mi Variable 4.6 mph - 0.01 in Rain , Thunderstorm Light Thunderstorms and Rain
2:06 PM 78.8 °F - 75.2 °F 89% 29.77 in 2.5 mi West 9.2 mph - 0.01 in Rain , Thunderstorm Light Thunderstorms and Rain
2:13 PM 78.8 °F - 73.4 °F 83% 29.77 in 5.0 mi West 4.6 mph - 0.01 in Thunderstorm Mostly Cloudy
2:51 PM 77.9 °F - 72.9 °F 84% 30.47 in 10.0 mi WNW 5.8 mph - 0.01 in   Scattered Clouds
3:02 PM 78.8 °F - 73.4 °F 83% 29.76 in 10.0 mi NNW 12.7 mph - N/A Thunderstorm Scattered Clouds
3:51 PM 73.9 °F - 65.8 °F 76% 30.47 in 10.0 mi NW 9.2 mph - N/A   Mostly Cloudy
4:51 PM 73.9 °F - 66.9 °F 79% 30.45 in 10.0 mi Calm Calm - N/A   Scattered Clouds
5:51 PM 72.9 °F - 68.0 °F 85% 30.45 in 10.0 mi NNW 6.9 mph - N/A   Mostly Cloudy
6:15 PM 73.4 °F - 68.0 °F 83% 29.73 in 10.0 mi Calm Calm - N/A Thunderstorm Overcast
6:30 PM 73.4 °F - 66.2 °F 78% 29.72 in 10.0 mi Calm Calm - N/A   Overcast
6:51 PM 72.9 °F - 66.9 °F 82% 30.41 in 10.0 mi North 3.5 mph - N/A   Mostly Cloudy
7:43 PM 71.6 °F - 66.2 °F 83% 29.71 in 10.0 mi Calm Calm - 0.01 in Rain Light Rain
7:51 PM 70.9 °F - 68.0 °F 91% 30.43 in 1.8 mi WSW 4.6 mph - 0.09 in Rain Light Rain
7:56 PM 71.6 °F - 69.8 °F 94% 29.71 in 3.0 mi Calm Calm - 0.01 in Rain Light Rain
8:23 PM 69.8 °F - 69.8 °F 100% 29.74 in 2.0 mi Variable 3.5 mph - 0.07 in Rain , Thunderstorm Light Thunderstorms and Rain
8:31 PM 69.8 °F - 68.0 °F 94% 29.74 in 1.8 mi Variable 6.9 mph - 0.19 in Rain , Thunderstorm Heavy Thunderstorms and Rain
8:35 PM 69.8 °F - 68.0 °F 94% 29.73 in 1.0 mi NNW 4.6 mph - 0.31 in Rain , Thunderstorm Heavy Thunderstorms and Rain
8:41 PM 69.8 °F - 66.2 °F 88% 29.72 in 0.8 mi North 3.5 mph - 0.40 in Rain Heavy Rain
8:51 PM 68.0 °F - 66.9 °F 96% 30.43 in 4.0 mi Calm Calm - 0.41 in Rain Light Rain
8:54 PM 68.0 °F - 66.2 °F 94% 29.71 in 5.0 mi Calm Calm - 0.00 in Rain Light Rain
9:01 PM 68.0 °F - 66.2 °F 94% 29.71 in 7.0 mi Calm Calm - 0.00 in Rain Light Rain
9:11 PM 68.0 °F - 66.2 °F 94% 29.71 in 10.0 mi Calm Calm - 0.01 in Rain , Thunderstorm Light Thunderstorms and Rain
9:18 PM 68.0 °F - 66.2 °F 94% 29.71 in 2.0 mi Calm Calm - 0.05 in Rain , Thunderstorm Rain
9:23 PM 68.0 °F - 66.2 °F 94% 29.71 in 1.2 mi Calm Calm - 0.09 in Rain , Thunderstorm Rain
9:29 PM 68.0 °F - 66.2 °F 94% 29.72 in 1.5 mi SSE 5.8 mph - 0.12 in Rain , Thunderstorm Heavy Thunderstorms and Rain
9:34 PM 68.0 °F - 66.2 °F 94% 29.72 in 2.0 mi Calm Calm - 0.13 in Rain , Thunderstorm Light Thunderstorms and Rain
9:43 PM 68.0 °F - 66.2 °F 94% 29.71 in 6.0 mi Calm Calm - 0.13 in Rain , Thunderstorm Light Thunderstorms and Rain
9:51 PM 68.0 °F - 68.0 °F 100% 30.42 in 4.0 mi Calm Calm - 0.15 in Rain , Thunderstorm Light Thunderstorms and Rain
10:01 PM 68.0 °F - 68.0 °F 100% 29.70 in 6.0 mi Calm Calm - 0.00 in Rain Light Rain
10:14 PM 68.0 °F - 68.0 °F 100% 29.71 in 8.0 mi Calm Calm - 0.00 in Rain Light Rain
10:38 PM 68.0 °F - 68.0 °F 100% 29.72 in 2.5 mi Calm Calm - 0.04 in Rain Rain
10:51 PM 68.0 °F - 66.9 °F 96% 30.44 in 2.0 mi Calm Calm - 0.10 in Rain Rain
10:57 PM 66.2 °F - 66.2 °F 100% 29.73 in 1.8 mi Variable 4.6 mph - 0.06 in Rain Heavy Rain
11:09 PM 66.2 °F - 66.2 °F 100% 29.71 in 2.0 mi ESE 5.8 mph - 0.11 in Rain Rain
11:20 PM 66.2 °F - 66.2 °F 100% 29.71 in 4.0 mi Calm Calm - 0.13 in Rain Light Rain
11:37 PM 66.2 °F - 66.2 °F 100% 29.69 in 5.0 mi Calm Calm - 0.15 in Rain Light Rain
11:44 PM 66.2 °F - 66.2 °F 100% 29.68 in 4.0 mi Calm Calm - 0.16 in Rain Light Rain
11:51 PM 66.9 °F - 66.9 °F 100% 30.39 in 5.0 mi Calm Calm - 0.17 in Rain Light Rain